This is the latest recevied weather packets stored in our database for station/object KA1STV. If no packets are shown the sender has not sent any weather packets the latest 1 day(s).
| Time | Temp. | Humidity | Pressure | Rain* | Wind** | Luminosity | Snow |
|---|---|---|---|---|---|---|---|
| 1778065046 | 13.33° C | 93% | 1009.1 hPa | 0 mm | - | 43 W/m² | - |
| 1778062625 | 12.78° C | 95% | 1008.6 hPa | 0 mm | - | 22 W/m² | - |
| 1778061416 | 12.22° C | 95% | 1008.5 hPa | 0 mm | - | 6 W/m² | - |
| 1778061112 | 12.78° C | 95% | 1008.4 hPa | 0 mm | - | 3 W/m² | - |
| 1778060206 | 12.78° C | 95% | 1008.6 hPa | 0 mm | - | 0 W/m² | - |
| 1778059600 | 12.78° C | 94% | 1008.7 hPa | 0 mm | - | 0 W/m² | - |
| 1778059297 | 12.78° C | 94% | 1008.4 hPa | 0 mm | - | 0 W/m² | - |
| 1778058995 | 12.78° C | 94% | 1008.5 hPa | 0 mm | - | 0 W/m² | - |
| 1778057176 | 12.78° C | 93% | 1008.5 hPa | 0 mm | - | 0 W/m² | - |
| 1778056873 | 12.78° C | 93% | 1008.5 hPa | 0 mm | - | 0 W/m² | - |
| 1778055964 | 13.33° C | 91% | 1008.7 hPa | 0 mm | - | 0 W/m² | - |
| 1778055660 | 13.33° C | 91% | 1008.7 hPa | 0 mm | - | 0 W/m² | - |
| 1778055358 | 13.33° C | 91% | 1008.7 hPa | 0 mm | - | 0 W/m² | - |
| 1778054753 | 13.33° C | 90% | 1008.4 hPa | 0 mm | - | 0 W/m² | - |
| 1778053542 | 13.89° C | 89% | 1008.6 hPa | 0 mm | - | 0 W/m² | - |
| 1778052936 | 13.89° C | 88% | 1008.7 hPa | 0 mm | - | 0 W/m² | - |
| 1778052330 | 13.89° C | 87% | 1008.5 hPa | 0 mm | - | 0 W/m² | - |
| 1778052028 | 13.89° C | 87% | 1008.7 hPa | 0 mm | - | 0 W/m² | - |
| 1778051726 | 13.89° C | 86% | 1008.6 hPa | 0 mm | - | 0 W/m² | - |
| 1778051423 | 14.44° C | 86% | 1008.4 hPa | 0 mm | - | 0 W/m² | - |
| 1778050817 | 14.44° C | 84% | 1008.3 hPa | 0 mm | - | 0 W/m² | - |
| 1778049302 | 13.89° C | 85% | 1008.3 hPa | 0 mm | - | 0 W/m² | - |
| 1778048999 | 13.89° C | 85% | 1008.4 hPa | 0 mm | - | 0 W/m² | - |
| 1778048394 | 14.44° C | 84% | 1008.2 hPa | 0 mm | - | 0 W/m² | - |
| 1778048090 | 14.44° C | 83% | 1008.3 hPa | 0 mm | - | 0 W/m² | - |
* Rain latest hour (hover to see other rain measurements)
** Current wind speed in m/s (hover to see current wind gust speed)